Year,Month,Day,Hour,Minute,Value (Times are PST for temperature in C)
2013,05,02,00,00,6.00
2013,05,02,00,01,6.00
2013,05,02,00,02,6.00
2013,05,02,00,03,6.00
2013,05,02,00,04,6.10
2013,05,02,00,05,6.10
2013,05,02,00,06,6.10
2013,05,02,00,07,6.10
2013,05,02,00,08,6.10
2013,05,02,00,09,6.10
2013,05,02,00,10,6.10
2013,05,02,00,11,6.10
2013,05,02,00,12,6.10
2013,05,02,00,13,6.10
2013,05,02,00,14,6.10
2013,05,02,00,15,6.10
2013,05,02,00,16,6.10
2013,05,02,00,17,6.10
2013,05,02,00,18,6.10
2013,05,02,00,19,6.10
2013,05,02,00,20,6.10
2013,05,02,00,21,6.10
2013,05,02,00,22,6.10
2013,05,02,00,23,6.10
2013,05,02,00,24,6.00
2013,05,02,00,25,6.00
2013,05,02,00,26,6.00
2013,05,02,00,27,6.00
2013,05,02,00,28,6.00
2013,05,02,00,29,6.00
2013,05,02,00,30,6.00
2013,05,02,00,31,6.00
2013,05,02,00,32,6.00
2013,05,02,00,33,6.00
2013,05,02,00,34,6.00
2013,05,02,00,35,6.00
2013,05,02,00,36,5.90
2013,05,02,00,37,5.90
2013,05,02,00,38,5.90
2013,05,02,00,39,5.90
2013,05,02,00,40,5.80
2013,05,02,00,41,5.80
2013,05,02,00,42,5.80
2013,05,02,00,43,5.80
2013,05,02,00,44,5.80
2013,05,02,00,45,5.80
2013,05,02,00,46,5.80
2013,05,02,00,47,5.80
2013,05,02,00,48,5.80
2013,05,02,00,49,5.80
2013,05,02,00,50,5.70
2013,05,02,00,51,5.70
2013,05,02,00,52,5.70
2013,05,02,00,53,5.70
2013,05,02,00,54,5.70
2013,05,02,00,55,5.70
2013,05,02,00,56,5.60
2013,05,02,00,57,5.60
2013,05,02,00,58,5.60
2013,05,02,00,59,5.60
2013,05,02,01,00,5.50
2013,05,02,01,01,5.50
2013,05,02,01,02,5.50
2013,05,02,01,03,5.50
2013,05,02,01,04,5.50
2013,05,02,01,05,5.50
2013,05,02,01,06,5.50
2013,05,02,01,07,5.50
2013,05,02,01,08,5.50
2013,05,02,01,09,5.50
2013,05,02,01,10,5.50
2013,05,02,01,11,5.50
2013,05,02,01,12,5.50
2013,05,02,01,13,5.50
2013,05,02,01,14,5.50
2013,05,02,01,15,5.50
2013,05,02,01,16,5.50
2013,05,02,01,17,5.40
2013,05,02,01,18,5.40
2013,05,02,01,19,5.40
2013,05,02,01,20,5.40
2013,05,02,01,21,5.40
2013,05,02,01,22,5.30
2013,05,02,01,23,5.30
2013,05,02,01,24,5.30
2013,05,02,01,25,5.30
2013,05,02,01,26,5.30
2013,05,02,01,27,5.30
2013,05,02,01,28,5.30
2013,05,02,01,29,5.30
2013,05,02,01,30,5.30
2013,05,02,01,31,5.30
2013,05,02,01,32,5.30
2013,05,02,01,33,5.30
2013,05,02,01,34,5.30
2013,05,02,01,35,5.30
2013,05,02,01,36,5.30
2013,05,02,01,37,5.30
2013,05,02,01,38,5.20
2013,05,02,01,39,5.20
2013,05,02,01,40,5.20
2013,05,02,01,41,5.20
2013,05,02,01,42,5.20
2013,05,02,01,43,5.20
2013,05,02,01,44,5.20
2013,05,02,01,45,5.20
2013,05,02,01,46,5.20
2013,05,02,01,47,5.10
2013,05,02,01,48,5.10
2013,05,02,01,49,5.10
2013,05,02,01,50,5.10
2013,05,02,01,51,5.00
2013,05,02,01,52,5.00
2013,05,02,01,53,5.00
2013,05,02,01,54,5.00
2013,05,02,01,55,4.90
2013,05,02,01,56,4.90
2013,05,02,01,57,4.90
2013,05,02,01,58,4.90
2013,05,02,01,59,4.90
2013,05,02,02,00,4.90
2013,05,02,02,01,4.90
2013,05,02,02,02,4.90
2013,05,02,02,03,4.90
2013,05,02,02,04,4.80
2013,05,02,02,05,4.80
2013,05,02,02,06,4.80
2013,05,02,02,07,4.80
2013,05,02,02,08,4.80
2013,05,02,02,09,4.80
2013,05,02,02,10,4.80
2013,05,02,02,11,4.80
2013,05,02,02,12,4.80
2013,05,02,02,13,4.80
2013,05,02,02,14,4.80
2013,05,02,02,15,4.80
2013,05,02,02,16,4.80
2013,05,02,02,17,4.70
2013,05,02,02,18,4.70
2013,05,02,02,19,4.70
2013,05,02,02,20,4.70
2013,05,02,02,21,4.70
2013,05,02,02,22,4.70
2013,05,02,02,23,4.70
2013,05,02,02,24,4.70
2013,05,02,02,25,4.70
2013,05,02,02,26,4.70
2013,05,02,02,27,4.70
2013,05,02,02,28,4.70
2013,05,02,02,29,4.70
2013,05,02,02,30,4.70
2013,05,02,02,31,4.60
2013,05,02,02,32,4.60
2013,05,02,02,33,4.60
2013,05,02,02,34,4.60
2013,05,02,02,35,4.60
2013,05,02,02,36,4.60
2013,05,02,02,37,4.50
2013,05,02,02,38,4.50
2013,05,02,02,39,4.50
2013,05,02,02,40,4.50
2013,05,02,02,41,4.50
2013,05,02,02,42,4.50
2013,05,02,02,43,4.50
2013,05,02,02,44,4.40
2013,05,02,02,45,4.40
2013,05,02,02,46,4.40
2013,05,02,02,47,4.40
2013,05,02,02,48,4.50
2013,05,02,02,49,4.50
2013,05,02,02,50,4.50
2013,05,02,02,51,4.50
2013,05,02,02,52,4.50
2013,05,02,02,53,4.50
2013,05,02,02,54,4.40
2013,05,02,02,55,4.40
2013,05,02,02,56,4.40
2013,05,02,02,57,4.40
2013,05,02,02,58,4.40
2013,05,02,02,59,4.50
2013,05,02,03,00,4.50
2013,05,02,03,01,4.50
2013,05,02,03,02,4.50
2013,05,02,03,03,4.40
2013,05,02,03,04,4.40
2013,05,02,03,05,4.40
2013,05,02,03,06,4.40
2013,05,02,03,07,4.30
2013,05,02,03,08,4.30
2013,05,02,03,09,4.30
2013,05,02,03,10,4.30
2013,05,02,03,11,4.30
2013,05,02,03,12,4.30
2013,05,02,03,13,4.30
2013,05,02,03,14,4.30
2013,05,02,03,15,4.30
2013,05,02,03,16,4.30
2013,05,02,03,17,4.20
2013,05,02,03,18,4.20
2013,05,02,03,19,4.30
2013,05,02,03,20,4.30
2013,05,02,03,21,4.30
2013,05,02,03,22,4.30
2013,05,02,03,23,4.30
2013,05,02,03,24,4.30
2013,05,02,03,25,4.30
2013,05,02,03,26,4.30
2013,05,02,03,27,4.30
2013,05,02,03,28,4.30
2013,05,02,03,29,4.30
2013,05,02,03,30,4.30
2013,05,02,03,31,4.30
2013,05,02,03,32,4.30
2013,05,02,03,33,4.30
2013,05,02,03,34,4.30
2013,05,02,03,35,4.30
2013,05,02,03,36,4.30
2013,05,02,03,37,4.30
2013,05,02,03,38,4.30
2013,05,02,03,39,4.30
2013,05,02,03,40,4.30
2013,05,02,03,41,4.30
2013,05,02,03,42,4.30
2013,05,02,03,43,4.30
2013,05,02,03,44,4.30
2013,05,02,03,45,4.30
2013,05,02,03,46,4.30
2013,05,02,03,47,4.20
2013,05,02,03,48,4.20
2013,05,02,03,49,4.20
2013,05,02,03,50,4.20
2013,05,02,03,51,4.20
2013,05,02,03,52,4.20
2013,05,02,03,53,4.20
2013,05,02,03,54,4.20
2013,05,02,03,55,4.20
2013,05,02,03,56,4.20
2013,05,02,03,57,4.20
2013,05,02,03,58,4.20
2013,05,02,03,59,4.20
2013,05,02,04,00,4.20
2013,05,02,04,01,4.20
2013,05,02,04,02,4.20
2013,05,02,04,03,4.20
2013,05,02,04,04,4.20
2013,05,02,04,05,4.20
2013,05,02,04,06,4.20
2013,05,02,04,07,4.20
2013,05,02,04,08,4.20
2013,05,02,04,09,4.20
2013,05,02,04,10,4.20
2013,05,02,04,11,4.20
2013,05,02,04,12,4.20
2013,05,02,04,13,4.20
2013,05,02,04,14,4.30
2013,05,02,04,15,4.30
2013,05,02,04,16,4.20
2013,05,02,04,17,4.20
2013,05,02,04,18,4.20
2013,05,02,04,19,4.20
2013,05,02,04,20,4.20
2013,05,02,04,21,4.20
2013,05,02,04,22,4.10
2013,05,02,04,23,4.20
2013,05,02,04,24,4.10
2013,05,02,04,25,4.20
2013,05,02,04,26,4.20
2013,05,02,04,27,4.10
2013,05,02,04,28,4.10
2013,05,02,04,29,4.10
2013,05,02,04,30,4.10
2013,05,02,04,31,4.10
2013,05,02,04,32,4.10
2013,05,02,04,33,4.10
2013,05,02,04,34,4.10
2013,05,02,04,35,4.10
2013,05,02,04,36,4.20
2013,05,02,04,37,4.20
2013,05,02,04,38,4.20
2013,05,02,04,39,4.20
2013,05,02,04,40,4.20
2013,05,02,04,41,4.30
2013,05,02,04,42,4.30
2013,05,02,04,43,4.30
2013,05,02,04,44,4.40
2013,05,02,04,45,4.40
2013,05,02,04,46,4.40
2013,05,02,04,47,4.40
2013,05,02,04,48,4.40
2013,05,02,04,49,4.40
2013,05,02,04,50,4.50
2013,05,02,04,51,4.50
2013,05,02,04,52,4.50
2013,05,02,04,53,4.50
2013,05,02,04,54,4.40
2013,05,02,04,55,4.40
2013,05,02,04,56,4.40
2013,05,02,04,57,4.40
2013,05,02,04,58,4.40
2013,05,02,04,59,4.30
2013,05,02,05,00,4.30
2013,05,02,05,01,4.30
2013,05,02,05,02,4.40
2013,05,02,05,03,4.40
2013,05,02,05,04,4.40
2013,05,02,05,05,4.40
2013,05,02,05,06,4.40
2013,05,02,05,07,4.40
2013,05,02,05,08,4.40
2013,05,02,05,09,4.50
2013,05,02,05,10,4.60
2013,05,02,05,11,4.60
2013,05,02,05,12,4.60
2013,05,02,05,13,4.60
2013,05,02,05,14,4.60
2013,05,02,05,15,4.60
2013,05,02,05,16,4.60
2013,05,02,05,17,4.60
2013,05,02,05,18,4.50
2013,05,02,05,19,4.50
2013,05,02,05,20,4.40
2013,05,02,05,21,4.40
2013,05,02,05,22,4.40
2013,05,02,05,23,4.40
2013,05,02,05,24,4.40
2013,05,02,05,25,4.40
2013,05,02,05,26,4.40
2013,05,02,05,27,4.40
2013,05,02,05,28,4.40
2013,05,02,05,29,4.40
2013,05,02,05,30,4.40
2013,05,02,05,31,4.40
2013,05,02,05,32,4.40
2013,05,02,05,33,4.40
2013,05,02,05,34,4.40
2013,05,02,05,35,4.40
2013,05,02,05,36,4.40
2013,05,02,05,37,4.40
2013,05,02,05,38,4.40
2013,05,02,05,39,4.40
2013,05,02,05,40,4.40
2013,05,02,05,41,4.40
2013,05,02,05,42,4.40
2013,05,02,05,43,4.30
2013,05,02,05,44,4.30
2013,05,02,05,45,4.30
2013,05,02,05,46,4.30
2013,05,02,05,47,4.30
2013,05,02,05,48,4.30
2013,05,02,05,49,4.30
2013,05,02,05,50,4.30
2013,05,02,05,51,4.30
2013,05,02,05,52,4.30
2013,05,02,05,53,4.30
2013,05,02,05,54,4.30
2013,05,02,05,55,4.30
2013,05,02,05,56,4.30
2013,05,02,05,57,4.30
2013,05,02,05,58,4.30
2013,05,02,05,59,4.30
2013,05,02,06,00,4.30
2013,05,02,06,01,4.30
2013,05,02,06,02,4.30
2013,05,02,06,03,4.30
2013,05,02,06,04,4.30
2013,05,02,06,05,4.30
2013,05,02,06,06,4.30
2013,05,02,06,07,4.30
2013,05,02,06,08,4.30
2013,05,02,06,09,4.40
2013,05,02,06,10,4.40
2013,05,02,06,11,4.30
2013,05,02,06,12,4.30
2013,05,02,06,13,4.40
2013,05,02,06,14,4.40
2013,05,02,06,15,4.40
2013,05,02,06,16,4.40
2013,05,02,06,17,4.40
2013,05,02,06,18,4.40
2013,05,02,06,19,4.40
2013,05,02,06,20,4.40
2013,05,02,06,21,4.40
2013,05,02,06,22,4.40
2013,05,02,06,23,4.40
2013,05,02,06,24,4.40
2013,05,02,06,25,4.40
2013,05,02,06,26,4.40
2013,05,02,06,27,4.40
2013,05,02,06,28,4.40
2013,05,02,06,29,4.40
2013,05,02,06,30,4.40
2013,05,02,06,31,4.30
2013,05,02,06,32,4.30
2013,05,02,06,33,4.30
2013,05,02,06,34,4.30
2013,05,02,06,35,4.30
2013,05,02,06,36,4.30
2013,05,02,06,37,4.20
2013,05,02,06,38,4.20
2013,05,02,06,39,4.20
2013,05,02,06,40,4.20
2013,05,02,06,41,4.20
2013,05,02,06,42,4.20
2013,05,02,06,43,4.20
2013,05,02,06,44,4.20
2013,05,02,06,45,4.20
2013,05,02,06,46,4.20
2013,05,02,06,47,4.20
2013,05,02,06,48,4.10
2013,05,02,06,49,4.10
2013,05,02,06,50,4.10
2013,05,02,06,51,4.10
2013,05,02,06,52,4.20
2013,05,02,06,53,4.20
2013,05,02,06,54,4.20
2013,05,02,06,55,4.30
2013,05,02,06,56,4.30
2013,05,02,06,57,4.30
2013,05,02,06,58,4.40
2013,05,02,06,59,4.40
2013,05,02,07,00,4.50
2013,05,02,07,01,4.50
2013,05,02,07,02,4.50
2013,05,02,07,03,4.60
2013,05,02,07,04,4.60
2013,05,02,07,05,4.60
2013,05,02,07,06,4.60
2013,05,02,07,07,4.60
2013,05,02,07,08,4.60
2013,05,02,07,09,4.60
2013,05,02,07,10,4.60
2013,05,02,07,11,4.60
2013,05,02,07,12,4.70
2013,05,02,07,13,4.70
2013,05,02,07,14,4.70
2013,05,02,07,15,4.70
2013,05,02,07,16,4.70
2013,05,02,07,17,4.70
2013,05,02,07,18,4.70
2013,05,02,07,19,4.70
2013,05,02,07,20,4.70
2013,05,02,07,21,4.80
2013,05,02,07,22,4.80
2013,05,02,07,23,4.80
2013,05,02,07,24,4.90
2013,05,02,07,25,5.00
2013,05,02,07,26,5.00
2013,05,02,07,27,5.10
2013,05,02,07,28,5.20
2013,05,02,07,29,5.20
2013,05,02,07,30,5.20
2013,05,02,07,31,5.30
2013,05,02,07,32,5.30
2013,05,02,07,33,5.40
2013,05,02,07,34,5.40
2013,05,02,07,35,5.40
2013,05,02,07,36,5.50
2013,05,02,07,37,5.50
2013,05,02,07,38,5.50
2013,05,02,07,39,5.50
2013,05,02,07,40,5.50
2013,05,02,07,41,5.50
2013,05,02,07,42,5.50
2013,05,02,07,43,5.50
2013,05,02,07,44,5.50
2013,05,02,07,45,5.50
2013,05,02,07,46,5.50
2013,05,02,07,47,5.50
2013,05,02,07,48,5.60
2013,05,02,07,49,5.60
2013,05,02,07,50,5.60
2013,05,02,07,51,5.70
2013,05,02,07,52,5.70
2013,05,02,07,53,5.70
2013,05,02,07,54,5.80
2013,05,02,07,55,5.80
2013,05,02,07,56,5.80
2013,05,02,07,57,5.90
2013,05,02,07,58,5.90
2013,05,02,07,59,5.90
2013,05,02,08,00,5.90
2013,05,02,08,01,6.00
2013,05,02,08,02,6.00
2013,05,02,08,03,6.00
2013,05,02,08,04,6.10
2013,05,02,08,05,6.10
2013,05,02,08,06,6.10
2013,05,02,08,07,6.10
2013,05,02,08,08,6.20
2013,05,02,08,09,6.20
2013,05,02,08,10,6.30
2013,05,02,08,11,6.30
2013,05,02,08,12,6.40
2013,05,02,08,13,6.40
2013,05,02,08,14,6.50
2013,05,02,08,15,6.60
2013,05,02,08,16,6.70
2013,05,02,08,17,6.80
2013,05,02,08,18,6.90
2013,05,02,08,19,6.90
2013,05,02,08,20,7.00
2013,05,02,08,21,7.10
2013,05,02,08,22,7.20
2013,05,02,08,23,7.30
2013,05,02,08,24,7.40
2013,05,02,08,25,7.50
2013,05,02,08,26,7.60
2013,05,02,08,27,7.70
2013,05,02,08,28,7.80
2013,05,02,08,29,7.90
2013,05,02,08,30,8.00
2013,05,02,08,31,8.00
2013,05,02,08,32,8.10
2013,05,02,08,33,8.20
2013,05,02,08,34,8.30
2013,05,02,08,35,8.40
2013,05,02,08,36,8.50
2013,05,02,08,37,8.60
2013,05,02,08,38,8.70
2013,05,02,08,39,8.80
2013,05,02,08,40,9.00
2013,05,02,08,41,9.00
2013,05,02,08,42,9.10
2013,05,02,08,43,9.20
2013,05,02,08,44,9.30
2013,05,02,08,45,9.30
2013,05,02,08,46,9.40
2013,05,02,08,47,9.40
2013,05,02,08,48,9.50
2013,05,02,08,49,9.50
2013,05,02,08,50,9.60
2013,05,02,08,51,9.60
2013,05,02,08,52,9.70
2013,05,02,08,53,9.70
2013,05,02,08,54,9.80
2013,05,02,08,55,9.80
2013,05,02,08,56,9.80
2013,05,02,08,57,9.80
2013,05,02,08,58,9.80
2013,05,02,08,59,9.80
2013,05,02,09,00,9.80
2013,05,02,09,01,9.80
2013,05,02,09,02,9.80
2013,05,02,09,03,9.80
2013,05,02,09,04,9.90
2013,05,02,09,05,9.90
2013,05,02,09,06,9.90
2013,05,02,09,07,10.00
2013,05,02,09,08,10.00
2013,05,02,09,09,10.10
2013,05,02,09,10,10.10
2013,05,02,09,11,10.20
2013,05,02,09,12,10.30
2013,05,02,09,13,10.30
2013,05,02,09,14,10.30
2013,05,02,09,15,10.40
2013,05,02,09,16,10.40
2013,05,02,09,17,10.40
2013,05,02,09,18,10.40
2013,05,02,09,19,10.40
2013,05,02,09,20,10.40
2013,05,02,09,21,10.40
2013,05,02,09,22,10.40
2013,05,02,09,23,10.50
2013,05,02,09,24,10.50
2013,05,02,09,25,10.50
2013,05,02,09,26,10.50
2013,05,02,09,27,10.50
2013,05,02,09,28,10.50
2013,05,02,09,29,10.50
2013,05,02,09,30,10.50
2013,05,02,09,31,10.50
2013,05,02,09,32,10.50
2013,05,02,09,33,10.50
2013,05,02,09,34,10.50
2013,05,02,09,35,10.50
2013,05,02,09,36,10.50
2013,05,02,09,37,10.50
2013,05,02,09,38,10.60
2013,05,02,09,39,10.60
2013,05,02,09,40,10.60
2013,05,02,09,41,10.60
2013,05,02,09,42,10.60
2013,05,02,09,43,10.60
2013,05,02,09,44,10.60
2013,05,02,09,45,10.70
2013,05,02,09,46,10.70
2013,05,02,09,47,10.80
2013,05,02,09,48,10.80
2013,05,02,09,49,10.80
2013,05,02,09,50,10.80
2013,05,02,09,51,10.90
2013,05,02,09,52,10.90
2013,05,02,09,53,10.90
2013,05,02,09,54,10.90
2013,05,02,09,55,10.90
2013,05,02,09,56,10.90
2013,05,02,09,57,11.00
2013,05,02,09,58,11.00
2013,05,02,09,59,11.00
2013,05,02,10,00,11.10
2013,05,02,10,01,11.10
2013,05,02,10,02,11.10
2013,05,02,10,03,11.20
2013,05,02,10,04,11.20
2013,05,02,10,05,11.20
2013,05,02,10,06,11.20
2013,05,02,10,07,11.20
2013,05,02,10,08,11.30
2013,05,02,10,09,11.30
2013,05,02,10,10,11.30
2013,05,02,10,11,11.40
2013,05,02,10,12,11.40
2013,05,02,10,13,11.50
2013,05,02,10,14,11.60
2013,05,02,10,15,11.60
2013,05,02,10,16,11.60
2013,05,02,10,17,11.70
2013,05,02,10,18,11.70
2013,05,02,10,19,11.70
2013,05,02,10,20,11.70
2013,05,02,10,21,11.70
2013,05,02,10,22,11.70
2013,05,02,10,23,11.60
2013,05,02,10,24,11.50
2013,05,02,10,25,11.50
2013,05,02,10,26,11.50
2013,05,02,10,27,11.50
2013,05,02,10,28,11.40
2013,05,02,10,29,11.40
2013,05,02,10,30,11.30
2013,05,02,10,31,11.30
2013,05,02,10,32,11.30
2013,05,02,10,33,11.30
2013,05,02,10,34,11.30
2013,05,02,10,35,11.30
2013,05,02,10,36,11.20
2013,05,02,10,37,11.20
2013,05,02,10,38,11.20
2013,05,02,10,39,11.20
2013,05,02,10,40,11.20
2013,05,02,10,41,11.30
2013,05,02,10,42,11.30
2013,05,02,10,43,11.30
2013,05,02,10,44,11.40
2013,05,02,10,45,11.40
2013,05,02,10,46,11.50
2013,05,02,10,47,11.50
2013,05,02,10,48,11.60
2013,05,02,10,49,11.60
2013,05,02,10,50,11.60
2013,05,02,10,51,11.70
2013,05,02,10,52,11.70
2013,05,02,10,53,11.70
2013,05,02,10,54,11.80
2013,05,02,10,55,11.80
2013,05,02,10,56,11.80
2013,05,02,10,57,11.80
2013,05,02,10,58,11.80
2013,05,02,10,59,11.80
2013,05,02,11,00,11.80
2013,05,02,11,01,11.80
2013,05,02,11,02,11.80
2013,05,02,11,03,11.90
2013,05,02,11,04,11.80
2013,05,02,11,05,11.80
2013,05,02,11,06,11.80
2013,05,02,11,07,11.70
2013,05,02,11,08,11.70
2013,05,02,11,09,11.70
2013,05,02,11,10,11.70
2013,05,02,11,11,11.70
2013,05,02,11,12,11.70
2013,05,02,11,13,11.70
2013,05,02,11,14,11.70
2013,05,02,11,15,11.70
2013,05,02,11,16,11.70
2013,05,02,11,17,11.70
2013,05,02,11,18,11.70
2013,05,02,11,19,11.70
2013,05,02,11,20,11.80
2013,05,02,11,21,11.80
2013,05,02,11,22,11.80
2013,05,02,11,23,11.80
2013,05,02,11,24,11.80
2013,05,02,11,25,11.80
2013,05,02,11,26,11.80
2013,05,02,11,27,11.80
2013,05,02,11,28,11.80
2013,05,02,11,29,11.80
2013,05,02,11,30,11.90
2013,05,02,11,31,11.90
2013,05,02,11,32,11.90
2013,05,02,11,33,11.90
2013,05,02,11,34,12.00
2013,05,02,11,35,12.00
2013,05,02,11,36,12.10
2013,05,02,11,37,12.10
2013,05,02,11,38,12.10
2013,05,02,11,39,12.00
2013,05,02,11,40,12.00
2013,05,02,11,41,12.00
2013,05,02,11,42,11.90
2013,05,02,11,43,11.80
2013,05,02,11,44,11.80
2013,05,02,11,45,11.70
2013,05,02,11,46,11.70
2013,05,02,11,47,11.70
2013,05,02,11,48,11.70
2013,05,02,11,49,11.70
2013,05,02,11,50,11.80
2013,05,02,11,51,11.80
2013,05,02,11,52,11.90
2013,05,02,11,53,11.90
2013,05,02,11,54,11.90
2013,05,02,11,55,12.00
2013,05,02,11,56,12.00
2013,05,02,11,57,12.10
2013,05,02,11,58,12.10
2013,05,02,11,59,12.10
2013,05,02,12,00,12.20
2013,05,02,12,01,12.20
2013,05,02,12,02,12.20
2013,05,02,12,03,12.30
2013,05,02,12,04,12.30
2013,05,02,12,05,12.30
2013,05,02,12,06,12.30
2013,05,02,12,07,12.30
2013,05,02,12,08,12.30
2013,05,02,12,09,12.20
2013,05,02,12,10,12.20
2013,05,02,12,11,12.10
2013,05,02,12,12,12.00
2013,05,02,12,13,12.00
2013,05,02,12,14,11.90
2013,05,02,12,15,11.80
2013,05,02,12,16,11.80
2013,05,02,12,17,11.80
2013,05,02,12,18,11.80
2013,05,02,12,19,11.80
2013,05,02,12,20,11.80
2013,05,02,12,21,11.80
2013,05,02,12,22,11.90
2013,05,02,12,23,11.90
2013,05,02,12,24,12.00
2013,05,02,12,25,12.00
2013,05,02,12,26,12.10
2013,05,02,12,27,12.10
2013,05,02,12,28,12.10
2013,05,02,12,29,12.10
2013,05,02,12,30,12.10
2013,05,02,12,31,12.20
2013,05,02,12,32,12.20
2013,05,02,12,33,12.20
2013,05,02,12,34,12.20
2013,05,02,12,35,12.30
2013,05,02,12,36,12.30
2013,05,02,12,37,12.30
2013,05,02,12,38,12.40
2013,05,02,12,39,12.40
2013,05,02,12,40,12.40
2013,05,02,12,41,12.50
2013,05,02,12,42,12.50
2013,05,02,12,43,12.50
2013,05,02,12,44,12.50
2013,05,02,12,45,12.50
2013,05,02,12,46,12.40
2013,05,02,12,47,12.40
2013,05,02,12,48,12.50
2013,05,02,12,49,12.50
2013,05,02,12,50,12.50
2013,05,02,12,51,12.40
2013,05,02,12,52,12.30
2013,05,02,12,53,12.30
2013,05,02,12,54,12.20
2013,05,02,12,55,12.20
2013,05,02,12,56,12.20
2013,05,02,12,57,12.20
2013,05,02,12,58,12.20
2013,05,02,12,59,12.20
2013,05,02,13,00,12.30
2013,05,02,13,01,12.40
2013,05,02,13,02,12.40
2013,05,02,13,03,12.40
2013,05,02,13,04,12.50
2013,05,02,13,05,12.50
2013,05,02,13,06,12.50
2013,05,02,13,07,12.50
2013,05,02,13,08,12.50
2013,05,02,13,09,12.40
2013,05,02,13,10,12.40
2013,05,02,13,11,12.40
2013,05,02,13,12,12.40
2013,05,02,13,13,12.40
2013,05,02,13,14,12.40
2013,05,02,13,15,12.40
2013,05,02,13,16,12.40
2013,05,02,13,17,12.40
2013,05,02,13,18,12.40
2013,05,02,13,19,12.40
2013,05,02,13,20,12.30
2013,05,02,13,21,12.30
2013,05,02,13,22,12.30
2013,05,02,13,23,12.30
2013,05,02,13,24,12.30
2013,05,02,13,25,12.40
2013,05,02,13,26,12.40
2013,05,02,13,27,12.40
2013,05,02,13,28,12.40
2013,05,02,13,29,12.20
2013,05,02,13,30,12.00
2013,05,02,13,31,11.90
2013,05,02,13,32,11.80
2013,05,02,13,33,11.70
2013,05,02,13,34,11.70
2013,05,02,13,35,11.70
2013,05,02,13,36,11.60
2013,05,02,13,37,11.60
2013,05,02,13,38,11.50
2013,05,02,13,39,11.50
2013,05,02,13,40,11.50
2013,05,02,13,41,11.40
2013,05,02,13,42,11.50
2013,05,02,13,43,11.50
2013,05,02,13,44,11.60
2013,05,02,13,45,11.70
2013,05,02,13,46,11.70
2013,05,02,13,47,11.80
2013,05,02,13,48,11.90
2013,05,02,13,49,12.00
2013,05,02,13,50,12.10
2013,05,02,13,51,12.20
2013,05,02,13,52,12.20
2013,05,02,13,53,12.30
2013,05,02,13,54,12.40
2013,05,02,13,55,12.50
2013,05,02,13,56,12.50
2013,05,02,13,57,12.50
2013,05,02,13,58,12.60
2013,05,02,13,59,12.60
2013,05,02,14,00,12.60
2013,05,02,14,01,12.70
2013,05,02,14,02,12.70
2013,05,02,14,03,12.80
2013,05,02,14,04,12.90
2013,05,02,14,05,13.00
2013,05,02,14,06,13.10
2013,05,02,14,07,13.20
2013,05,02,14,08,13.30
2013,05,02,14,09,13.40
2013,05,02,14,10,13.40
2013,05,02,14,11,13.50
2013,05,02,14,12,13.60
2013,05,02,14,13,13.60
2013,05,02,14,14,13.70
2013,05,02,14,15,13.60
2013,05,02,14,16,13.50
2013,05,02,14,17,13.40
2013,05,02,14,18,13.40
2013,05,02,14,19,13.40
2013,05,02,14,20,13.30
2013,05,02,14,21,13.30
2013,05,02,14,22,13.30
2013,05,02,14,23,13.30
2013,05,02,14,24,13.30
2013,05,02,14,25,13.40
2013,05,02,14,26,13.60
2013,05,02,14,27,13.70
2013,05,02,14,28,13.90
2013,05,02,14,29,13.90
2013,05,02,14,30,13.90
2013,05,02,14,31,13.90
2013,05,02,14,32,13.70
2013,05,02,14,33,13.60
2013,05,02,14,34,13.50
2013,05,02,14,35,13.40
2013,05,02,14,36,13.50
2013,05,02,14,37,13.50
2013,05,02,14,38,13.60
2013,05,02,14,39,13.60
2013,05,02,14,40,13.60
2013,05,02,14,41,13.70
2013,05,02,14,42,13.70
2013,05,02,14,43,13.60
2013,05,02,14,44,13.60
2013,05,02,14,45,13.70
2013,05,02,14,46,13.80
2013,05,02,14,47,13.80
2013,05,02,14,48,13.70
2013,05,02,14,49,13.70
2013,05,02,14,50,13.80
2013,05,02,14,51,13.80
2013,05,02,14,52,13.90
2013,05,02,14,53,13.90
2013,05,02,14,54,13.90
2013,05,02,14,55,14.00
2013,05,02,14,56,14.00
2013,05,02,14,57,14.10
2013,05,02,14,58,14.10
2013,05,02,14,59,14.10
2013,05,02,15,00,14.20
2013,05,02,15,01,14.20
2013,05,02,15,02,14.30
2013,05,02,15,03,14.30
2013,05,02,15,04,14.30
2013,05,02,15,05,14.30
2013,05,02,15,06,14.40
2013,05,02,15,07,14.40
2013,05,02,15,08,14.40
2013,05,02,15,09,14.40
2013,05,02,15,10,14.30
2013,05,02,15,11,14.30
2013,05,02,15,12,14.30
2013,05,02,15,13,14.30
2013,05,02,15,14,14.30
2013,05,02,15,15,14.30
2013,05,02,15,16,14.20
2013,05,02,15,17,14.10
2013,05,02,15,18,14.10
2013,05,02,15,19,14.10
2013,05,02,15,20,14.10
2013,05,02,15,21,14.00
2013,05,02,15,22,14.00
2013,05,02,15,23,13.90
2013,05,02,15,24,13.80
2013,05,02,15,25,13.70
2013,05,02,15,26,13.70
2013,05,02,15,27,13.60
2013,05,02,15,28,13.50
2013,05,02,15,29,13.50
2013,05,02,15,30,13.40
2013,05,02,15,31,13.40
2013,05,02,15,32,13.40
2013,05,02,15,33,13.50
2013,05,02,15,34,13.50
2013,05,02,15,35,13.60
2013,05,02,15,36,13.70
2013,05,02,15,37,13.80
2013,05,02,15,38,13.80
2013,05,02,15,39,13.80
2013,05,02,15,40,13.90
2013,05,02,15,41,13.90
2013,05,02,15,42,14.00
2013,05,02,15,43,14.10
2013,05,02,15,44,14.20
2013,05,02,15,45,14.20
2013,05,02,15,46,14.30
2013,05,02,15,47,14.30
2013,05,02,15,48,14.30
2013,05,02,15,49,14.40
2013,05,02,15,50,14.40
2013,05,02,15,51,14.40
2013,05,02,15,52,14.40
2013,05,02,15,53,14.50
2013,05,02,15,54,14.40
2013,05,02,15,55,14.40
2013,05,02,15,56,14.30
2013,05,02,15,57,14.30
2013,05,02,15,58,14.30
2013,05,02,15,59,14.30
2013,05,02,16,00,14.30
2013,05,02,16,01,14.30
2013,05,02,16,02,14.30
2013,05,02,16,03,14.30
2013,05,02,16,04,14.40
2013,05,02,16,05,14.40
2013,05,02,16,06,14.50
2013,05,02,16,07,14.40
2013,05,02,16,08,14.40
2013,05,02,16,09,14.50
2013,05,02,16,10,14.50
2013,05,02,16,11,14.60
2013,05,02,16,12,14.60
2013,05,02,16,13,14.70
2013,05,02,16,14,14.80
2013,05,02,16,15,14.80
2013,05,02,16,16,14.90
2013,05,02,16,17,15.00
2013,05,02,16,18,15.00
2013,05,02,16,19,15.10
2013,05,02,16,20,15.00
2013,05,02,16,21,15.00
2013,05,02,16,22,14.90
2013,05,02,16,23,14.80
2013,05,02,16,24,14.70
2013,05,02,16,25,14.60
2013,05,02,16,26,14.60
2013,05,02,16,27,14.50
2013,05,02,16,28,14.50
2013,05,02,16,29,14.40
2013,05,02,16,30,14.40
2013,05,02,16,31,14.30
2013,05,02,16,32,14.20
2013,05,02,16,33,14.10
2013,05,02,16,34,14.10
2013,05,02,16,35,14.00
2013,05,02,16,36,14.00
2013,05,02,16,37,13.90
2013,05,02,16,38,13.90
2013,05,02,16,39,14.00
2013,05,02,16,40,14.10
2013,05,02,16,41,14.20
2013,05,02,16,42,14.20
2013,05,02,16,43,14.20
2013,05,02,16,44,14.30
2013,05,02,16,45,14.30
2013,05,02,16,46,14.30
2013,05,02,16,47,14.30
2013,05,02,16,48,14.30
2013,05,02,16,49,14.40
2013,05,02,16,50,14.50
2013,05,02,16,51,14.60
2013,05,02,16,52,14.70
2013,05,02,16,53,14.70
2013,05,02,16,54,14.70
2013,05,02,16,55,14.70
2013,05,02,16,56,14.70
2013,05,02,16,57,14.60
2013,05,02,16,58,14.50
2013,05,02,16,59,14.50
2013,05,02,17,00,14.50
2013,05,02,17,01,14.50
2013,05,02,17,02,14.50
2013,05,02,17,03,14.40
2013,05,02,17,04,14.50
2013,05,02,17,05,14.50
2013,05,02,17,06,14.50
2013,05,02,17,07,14.60
2013,05,02,17,08,14.60
2013,05,02,17,09,14.70
2013,05,02,17,10,14.80
2013,05,02,17,11,14.80
2013,05,02,17,12,14.80
2013,05,02,17,13,14.70
2013,05,02,17,14,14.60
2013,05,02,17,15,14.60
2013,05,02,17,16,14.50
2013,05,02,17,17,14.50
2013,05,02,17,18,14.50
2013,05,02,17,19,14.40
2013,05,02,17,20,14.40
2013,05,02,17,21,14.40
2013,05,02,17,22,14.40
2013,05,02,17,23,14.50
2013,05,02,17,24,14.60
2013,05,02,17,25,14.60
2013,05,02,17,26,14.60
2013,05,02,17,27,14.60
2013,05,02,17,28,14.70
2013,05,02,17,29,14.70
2013,05,02,17,30,14.70
2013,05,02,17,31,14.80
2013,05,02,17,32,14.80
2013,05,02,17,33,14.80
2013,05,02,17,34,14.90
2013,05,02,17,35,14.90
2013,05,02,17,36,14.90
2013,05,02,17,37,14.90
2013,05,02,17,38,15.00
2013,05,02,17,39,15.00
2013,05,02,17,40,15.10
2013,05,02,17,41,15.20
2013,05,02,17,42,15.40
2013,05,02,17,43,15.50